Weather History for CWGT - July, 2013

Change the Weather History Date:

Friday, July 19, 2013

  Actual Average Record
Temperature  
Mean Temperature 66 °F -  
Max Temperature 70 °F - - ()
Min Temperature 61 °F - - ()
Growing Degree Days 16 (Base 50)    
Moisture  
Dew Point 58 °F    
Average Humidity 74    
Maximum Humidity 83    
Minimum Humidity 63    
Precipitation  
Precipitation 0.00 in - - ()
Sea Level Pressure  
Sea Level Pressure 30.09 in    
Wind  
Wind Speed 9 mph ()    
Max Wind Speed 20 mph    
Max Gust Speed -    
T = Trace of Precipitation, MM = Missing Value Source: Averaged Metar Reports

Daily Weather History Graph

Daily Weather History Graph

Search for Another Location

Airport or City:

Trip Planner

Search our weather history database for the weather conditions in past years. The results will help you decide how hot, cold, wet, or windy it might be!

Date:

Astronomy

Jul. 19, 2013 Rise Set
Actual Time 5:32 AM PDT 9:14 PM PDT
Civil Twilight 4:52 AM PDT 9:55 PM PDT
Nautical Twilight 3:56 AM PDT 10:49 PM PDT
Astronomical Twilight 2:34 AM PDT 12:10 AM PDT
Moon 6:22 PM PDT (7/19) 2:20 AM PDT (7/19)
Length of Visible Light 17h 03m
Length of Day
15h 42m
Waxing Gibbous, 87% of the Moon is Illuminated
Jul 19
Waxing Gibbous
Jul 22
Full
Jul 29
Last Quarter
Aug 6
New
Aug 14
First Quarter

Hourly Weather History & Observations

Time (PDT) Temp. Dew Point Humidity Pressure Visibility Wind Dir Wind Speed Gust Speed Precip Events Conditions
12:00 AM 68.2 °F 61.3 °F 79% 30.11 in - NNW 3.5 mph - N/A   Unknown
1:00 AM 66.9 °F 60.1 °F 79% 30.11 in - NW 12.7 mph - N/A   Unknown
2:00 AM 64.9 °F 57.0 °F 75% 30.11 in - NW 16.1 mph - N/A   Unknown
3:00 AM 63.9 °F 56.7 °F 77% 30.11 in - NW 17.3 mph - N/A   Unknown
4:00 AM 62.6 °F 57.0 °F 82% 30.11 in - NW 13.8 mph - N/A   Unknown
5:00 AM 62 °F 56 °F 77% 30.12 in - NW 19.6 mph - -  
5:00 AM 61.7 °F 56.5 °F 83% 30.12 in - NW 19.6 mph - N/A   Unknown
6:00 AM 61.3 °F 55.9 °F 82% 30.13 in - NW 18.4 mph - N/A   Unknown
7:00 AM 62.2 °F 55.6 °F 79% 30.14 in - WNW 12.7 mph - N/A   Unknown
8:00 AM 62.8 °F 55.9 °F 78% 30.14 in - NW 11.5 mph - N/A   Unknown
9:00 AM 62.8 °F 55.6 °F 77% 30.15 in - NW 11.5 mph - N/A   Unknown
10:00 AM 62.6 °F 55.8 °F 78% 30.14 in - NW 10.4 mph - N/A   Unknown
11:00 AM 63 °F 56 °F 72% 30.14 in - NNW 10.4 mph - -  
11:00 AM 63.1 °F 56.1 °F 78% 30.14 in - NNW 10.4 mph - N/A   Unknown
12:00 PM 64.4 °F 57.2 °F 77% 30.13 in - NNW 8.1 mph - N/A   Unknown
1:00 PM 65.7 °F 57.9 °F 76% 30.12 in - NNW 8.1 mph - N/A   Unknown
2:00 PM 67.1 °F 58.5 °F 74% 30.10 in - NNW 6.9 mph - N/A   Unknown
3:00 PM 67.8 °F 58.5 °F 72% 30.08 in - NNW 6.9 mph - N/A   Unknown
4:00 PM 69.6 °F 59.4 °F 70% 30.07 in - NNW 4.6 mph - N/A   Unknown
5:00 PM 70 °F 60 °F 63% 30.05 in - NNW 4.6 mph - -  
5:00 PM 70.0 °F 60.1 °F 71% 30.05 in - NNW 4.6 mph - N/A   Unknown
6:00 PM 70.5 °F 60.6 °F 71% 30.04 in - NW 3.5 mph - N/A   Unknown
7:00 PM 70.2 °F 59.9 °F 70% 30.02 in - WNW 3.5 mph - N/A   Unknown
8:00 PM 70.3 °F 60.4 °F 71% 30.01 in - West 4.6 mph - N/A   Unknown
9:00 PM 68.9 °F 57.4 °F 67% 30.01 in - WSW 2.3 mph - N/A   Unknown
10:00 PM 70.0 °F 58.6 °F 67% 30.02 in - WNW 3.5 mph - N/A   Unknown
11:00 PM 70 °F 60 °F 63% 30.02 in - WNW 8.1 mph - -  
11:00 PM 69.6 °F 60.3 °F 72% 30.02 in - WNW 8.1 mph - N/A   Unknown